COSMOS 2251 DEB, 34758

Orbit data source: Space-Track

COSMOS 2251 DEB, 34758 is space debris in LEO originally from a launch on Wed, 16 Jun 1993 UTC launched from the Plesetsk Missile And Space Complex (PKMTR). The debris from Iridium 33, an American commercial communications satellite, has been tracked extensively since its accidental collision with the defunct Russian satellite Cosmos 2251 in 2009. This event, occurring at high speed in low Earth orbit (LEO), generated thousands of pieces of space debris, significantly increasing the risk of further collisions. The Iridium 33 debris cloud has impacted space traffic management and orbital debris mitigation strategies, making it a subject of ongoing study in space situational awareness.

Loading next visibility...
Identifier
34758, 1993-036AAC
Orbit
LEO
Country
Flag of CISCIS
Related business
Manufacturer
Unknown
Mission
Spacecraft
Bus & Motor
Unknown
Mass
Unknown
Launch date (UTC)
1993-06-16 (32 years ago)
Launch vehicle
Unknown
Launch site
Plesetsk Missile And Space Complex (PKMTR)
Object type
Payload
Rocket body
Debris
Shape & HBR
Unknown shape, 0.1 m
Radar Cross Section
Small (<0.1 m²)

Expand to show TLE details & history
Last TLE update: 14 hours ago

TLE from 14 hours ago
0 COSMOS 2251 DEB
1 34758U 93036AAC 25347.27920442  .00002250  00000-0  19505-2 0  9990
2 34758  74.1075 298.6286 0381288  62.2206 301.7014 13.58071022829174
Epoch: 2025-12-13T06:42Z
TLE epoch observation values (Epoch: 2025-12-13T06:42:03.261Z)
Latitude
-0.00013°
Longitude
115.90622°
Altitude
904.566 km
Speed
7.47 km/s
True Right ascension
19h 54m 30s
True Declination
0° 00' 00"
Sunlit
Object was in daylight at epoch
Visualization orbit readout
Latitude
Unknown
Longitude
Unknown
Altitude
Unknown
Speed
Unknown
Apparent Right ascension
Unknown
Apparent Declination
Unknown
Sunlit
N/A
Visualization observer readout
Local Sidereal Time
19:00:02
Azimuth
Unknown
Elevation
Unknown
Doppler factor
Unknown
Orbital elements
Apogee altitude
1,323.271 km
Perigee altitude
757.551 km
Semi-major axis
7,418.548 km
Eccentricity
0.03813
Inclination
74.1075°
RAAN
298.6286°
Arg. of periapsis
62.2206°
True anomaly
297.89148°
Mean anomaly
301.7014°
Eccentric anomaly
299.80577°
Mean motion
3.39676 °/min
Orbital period
105.98 mins
BSTAR
0.0019505

Documentation

Showing up to 5 results
|